User: anonymous   Login
Location: Gloden
(48.4833°N, 15.3167°E)
Time: 12:55:33
(UTC+00:00)
Language:

USA 238 DEB - Orbit

View from above orbital plane
View from above orbital plane
View from above satellite
View from above satellite

Ground track
Ground track

The orbit data is extracted from the following two-line orbital elements,

1 38773U 12048P   20051.80194138 0.00000000  00000-0  00000-0 0    08
2 38773  63.4324 330.6910 0113261   1.5359 358.4641 13.40802006    06
Epoch (UTC): 20 February 2020 19:14:47
Eccentricity: 0.0113261
inclination: 63.4324°
perigee height: 1021 km
apogee height: 1191 km
right ascension of ascending node: 330.6910°
argument of perigee: 1.5359°
revolutions per day: 13.40802006
mean anomaly at epoch: 358.4641°
orbit number at epoch: 0

The dashed part of the orbit path shows where the satellite is in the earth's shadow,  

DLR